Weather History for KEWB - November, 2011

Change the Weather History Date:

Friday, November 4, 2011

  Actual Average Record
Temperature  
Mean Temperature 44 °F -  
Max Temperature 51 °F 59 °F 79 °F (1975)
Min Temperature 37 °F 45 °F 25 °F (1998)
Degree Days  
Heating Degree Days 21    
Moisture  
Dew Point 34 °F    
Average Humidity 68    
Maximum Humidity 100    
Minimum Humidity 32    
Precipitation  
Precipitation 0.00 in - - ()
Sea Level Pressure  
Sea Level Pressure 29.98 in    
Wind  
Wind Speed 5 mph (NNW)    
Max Wind Speed 22 mph    
Max Gust Speed 32 mph    
Visibility 7 miles    
Events Fog    
Averages and records for this station are not official NWS values.
T = Trace of Precipitation, MM = Missing Value Source: NWS Daily Summary

Daily Weather History Graph

Daily Weather History Graph

Search for Another Location

Airport or City:

Trip Planner

Search our weather history database for the weather conditions in past years. The results will help you decide how hot, cold, wet, or windy it might be!

Date:

Astronomy

Nov. 04, 2011 Rise Set
Actual Time 7:19 AM EDT 5:35 PM EDT
Civil Twilight 6:50 AM EDT 6:04 PM EDT
Nautical Twilight 6:17 AM EDT 6:37 PM EDT
Astronomical Twilight 5:44 AM EDT 7:09 PM EDT
Moon 2:29 PM EDT 1:23 AM EDT
Length of Visible Light 11h 14m
Length of Day
10h 15m
Waxing Gibbous, 69% of the Moon is Illuminated
Nov 4
Waxing Gibbous
Nov 10
Full
Nov 18
Last Quarter
Nov 25
New
Dec 2
First Quarter

Hourly Weather History & Observations

Time (EDT) Temp. Windchill Dew Point Humidity Pressure Visibility Wind Dir Wind Speed Gust Speed Precip Events Conditions
12:53 AM 46.4 °F 42.9 °F 44.6 °F 93% 29.89 in 6.0 mi SW 6.9 mph - N/A   Clear
1:53 AM 48.9 °F - 46.9 °F 93% 29.88 in 7.0 mi WSW 5.8 mph - N/A   Clear
2:26 AM 46.4 °F - 44.6 °F 93% 29.87 in 1.8 mi Calm Calm - N/A   Clear
2:40 AM 46.4 °F 45.2 °F 46.4 °F 100% 29.87 in 3.0 mi South 3.5 mph - N/A   Clear
2:53 AM 48.0 °F - 46.0 °F 93% 29.87 in 4.0 mi Calm Calm - N/A   Clear
3:03 AM 46.4 °F - 44.6 °F 93% 29.87 in 1.8 mi Calm Calm - N/A   Clear
3:13 AM 46.4 °F - 44.6 °F 93% 29.87 in 0.2 mi Calm Calm - N/A Fog Fog
3:30 AM 46.4 °F - 44.6 °F 93% 29.87 in 1.0 mi Calm Calm - N/A   Clear
3:53 AM 46.0 °F - 45.0 °F 96% 29.87 in 0.8 mi Calm Calm - N/A   Clear
4:15 AM 46.4 °F - 44.6 °F 93% 29.88 in 1.5 mi Calm Calm - N/A   Clear
4:19 AM 46.4 °F 45.2 °F 44.6 °F 93% 29.88 in 3.0 mi North 3.5 mph - N/A   Clear
4:53 AM 46.9 °F - 45.0 °F 93% 29.89 in 6.0 mi WNW 3.5 mph - N/A   Clear
5:53 AM 48.0 °F - 43.0 °F 83% 29.90 in 8.0 mi NNW 3.5 mph - N/A   Clear
6:53 AM 46.9 °F - 41.0 °F 80% 29.92 in 10.0 mi North 4.6 mph - N/A   Partly Cloudy
7:53 AM 46.0 °F 43.9 °F 39.9 °F 79% 29.95 in 10.0 mi North 4.6 mph - N/A   Partly Cloudy
8:53 AM 46.9 °F - 37.0 °F 68% 29.97 in 10.0 mi North 8.1 mph - N/A   Clear
9:53 AM 46.0 °F 41.4 °F 28.0 °F 50% 29.98 in 10.0 mi North 9.2 mph 23.0 mph N/A   Partly Cloudy
10:53 AM 48.9 °F - 28.0 °F 44% 29.98 in 10.0 mi NNE 21.9 mph 32.2 mph N/A   Clear
11:53 AM 48.9 °F - 28.9 °F 46% 29.99 in 10.0 mi North 10.4 mph 19.6 mph N/A   Clear
12:53 PM 50.0 °F - 27.0 °F 41% 29.98 in 10.0 mi NW 9.2 mph 18.4 mph N/A   Clear
1:53 PM 51.1 °F - 27.0 °F 39% 29.98 in 10.0 mi Variable 6.9 mph - N/A   Clear
2:53 PM 51.8 °F - 24.8 °F 35% 29.99 in 10.0 mi North 9.2 mph - N/A   Clear
3:53 PM 50.0 °F - 21.9 °F 33% 30.01 in 10.0 mi North 6.9 mph 18.4 mph N/A   Clear
4:53 PM 48.0 °F - 19.0 °F 32% 30.03 in 10.0 mi North 13.8 mph 24.2 mph N/A   Clear
5:53 PM 46.4 °F 45.2 °F 21.2 °F 37% 30.08 in 10.0 mi Variable 3.5 mph - N/A   Clear
6:53 PM 45.0 °F 41.2 °F 23.0 °F 42% 30.12 in 10.0 mi North 6.9 mph - N/A   Overcast
7:53 PM 42.8 °F 38.0 °F 21.2 °F 42% 30.14 in 10.0 mi North 8.1 mph - N/A   Clear
8:53 PM 41.0 °F 38.0 °F 23.0 °F 49% 30.17 in 10.0 mi NNW 4.6 mph - N/A   Clear
9:53 PM 39.0 °F - 23.0 °F 53% 30.20 in 10.0 mi Calm Calm - N/A   Clear
10:53 PM 37.9 °F 34.4 °F 24.1 °F 57% 30.21 in 10.0 mi NW 4.6 mph - N/A   Clear
11:53 PM 37.0 °F 33.3 °F 24.1 °F 59% 30.22 in 10.0 mi NNW 4.6 mph - N/A   Clear